Radiation Dose at Monitoring Post of Fukushima Daini Nuclear Power Station
Date,Time,MP-1(microSv/h),MP-2(microSv/h),MP-3(microSv/h),MP-4(microSv/h),MP-5(microSv/h),MP-6(microSv/h),MP-7(microSv/h),Wind Direction,Wind Velocity(m/s),Rain
2020/11/23,00:00,0.177,0.161,0.266,0.254,0.249,0.144,0.087,south,4.0,No
2020/11/23,00:10,0.180,0.162,0.268,0.251,0.250,0.144,0.086,south-southwest,3.2,No
2020/11/23,00:20,0.179,0.161,0.266,0.252,0.249,0.144,0.087,south-southwest,4.5,No
2020/11/23,00:30,0.179,0.161,0.267,0.251,0.247,0.145,0.086,south-southwest,5.2,No
2020/11/23,00:40,0.179,0.160,0.267,0.252,0.249,0.143,0.086,south-southwest,4.7,No
2020/11/23,00:50,0.178,0.160,0.265,0.252,0.249,0.144,0.086,southwest,3.4,No
2020/11/23,01:00,0.180,0.161,0.267,0.253,0.248,0.144,0.087,south-southwest,4.7,No
2020/11/23,01:10,0.177,0.161,0.266,0.253,0.247,0.144,0.086,south-southwest,3.8,No
2020/11/23,01:20,0.179,0.160,0.268,0.253,0.249,0.144,0.087,southwest,4.1,No
2020/11/23,01:30,0.177,0.161,0.265,0.252,0.248,0.144,0.086,southwest,3.4,No
2020/11/23,01:40,0.179,0.160,0.266,0.251,0.249,0.144,0.086,south-southwest,4.5,No
2020/11/23,01:50,0.179,0.161,0.268,0.253,0.249,0.143,0.087,south-southwest,4.1,No
2020/11/23,02:00,0.178,0.160,0.265,0.251,0.248,0.144,0.086,southwest,4.1,No
2020/11/23,02:10,0.179,0.159,0.267,0.251,0.247,0.143,0.087,southwest,3.1,No
2020/11/23,02:20,0.178,0.160,0.266,0.253,0.247,0.144,0.086,southwest,3.3,No
2020/11/23,02:30,0.179,0.160,0.267,0.250,0.248,0.143,0.086,south,3.0,No
2020/11/23,02:40,0.179,0.161,0.265,0.254,0.247,0.144,0.087,south-southwest,3.7,No
2020/11/23,02:50,0.179,0.161,0.265,0.253,0.249,0.143,0.087,south-southwest,3.0,No
2020/11/23,03:00,0.178,0.161,0.267,0.252,0.248,0.143,0.087,southwest,2.4,No
2020/11/23,03:10,0.180,0.161,0.265,0.251,0.250,0.144,0.087,south-southwest,1.1,No
2020/11/23,03:20,0.179,0.160,0.267,0.252,0.248,0.143,0.086,-,CALM,No
2020/11/23,03:30,0.179,0.161,0.266,0.253,0.248,0.144,0.086,-,CALM,No
2020/11/23,03:40,0.180,0.161,0.267,0.252,0.247,0.143,0.086,west,1.4,No
2020/11/23,03:50,0.178,0.160,0.267,0.252,0.247,0.145,0.086,south-southwest,1.0,No
2020/11/23,04:00,0.179,0.161,0.266,0.252,0.249,0.144,0.087,west,1.0,No
2020/11/23,04:10,0.179,0.160,0.267,0.253,0.247,0.145,0.087,north,1.0,No
2020/11/23,04:20,0.178,0.161,0.266,0.252,0.251,0.145,0.087,northeast,1.3,No
2020/11/23,04:30,0.178,0.161,0.268,0.253,0.248,0.144,0.088,northeast,2.1,No
2020/11/23,04:40,0.178,0.161,0.268,0.253,0.249,0.143,0.087,north,4.3,No
2020/11/23,04:50,0.179,0.160,0.266,0.253,0.248,0.144,0.087,north-northwest,5.8,No
2020/11/23,05:00,0.179,0.161,0.267,0.253,0.248,0.144,0.087,west,5.0,No
2020/11/23,05:10,0.179,0.161,0.268,0.252,0.250,0.144,0.086,northwest,5.4,No
2020/11/23,05:20,0.180,0.160,0.265,0.253,0.247,0.143,0.087,north-northwest,10.4,No
2020/11/23,05:30,0.178,0.161,0.267,0.251,0.249,0.144,0.086,northwest,8.4,No
2020/11/23,05:40,0.179,0.161,0.265,0.252,0.246,0.143,0.087,west-northwest,8.2,No
2020/11/23,05:50,0.178,0.161,0.267,0.250,0.248,0.143,0.086,northwest,8.2,No
2020/11/23,06:00,0.179,0.159,0.265,0.251,0.247,0.143,0.086,northwest,7.7,No
2020/11/23,06:10,0.178,0.160,0.265,0.253,0.247,0.143,0.086,northwest,7.7,No
2020/11/23,06:20,0.179,0.160,0.268,0.252,0.248,0.145,0.086,north-northwest,8.1,No
2020/11/23,06:30,0.179,0.160,0.267,0.253,0.247,0.143,0.086,northwest,7.6,No
2020/11/23,06:40,0.179,0.160,0.266,0.252,0.250,0.143,0.086,northwest,6.1,No
2020/11/23,06:50,0.179,0.161,0.266,0.252,0.248,0.143,0.086,northwest,5.3,No
2020/11/23,07:00,0.178,0.159,0.265,0.253,0.249,0.144,0.086,north-northwest,6.0,No
2020/11/23,07:10,0.179,0.160,0.267,0.251,0.249,0.144,0.087,north-northwest,8.1,No
2020/11/23,07:20,0.179,0.161,0.267,0.253,0.249,0.144,0.086,north-northwest,8.7,No
2020/11/23,07:30,0.178,0.161,0.267,0.252,0.249,0.144,0.086,northwest,8.3,No
2020/11/23,07:40,0.179,0.160,0.267,0.251,0.248,0.143,0.086,northwest,8.1,No
2020/11/23,07:50,0.179,0.161,0.266,0.253,0.250,0.143,0.086,northwest,6.5,No
2020/11/23,08:00,0.179,0.161,0.265,0.251,0.247,0.143,0.086,northwest,5.2,No
2020/11/23,08:10,0.179,0.161,0.267,0.252,0.249,0.144,0.086,north-northwest,5.6,No
2020/11/23,08:20,0.179,0.161,0.266,0.253,0.248,0.144,0.086,northwest,8.1,No
2020/11/23,08:30,0.178,0.160,0.268,0.253,0.248,0.143,0.086,northwest,8.8,No
2020/11/23,08:40,0.178,0.159,0.265,0.251,0.248,0.144,0.086,north-northwest,6.4,No
2020/11/23,08:50,0.179,0.160,0.265,0.252,0.248,0.144,0.086,north-northwest,7.1,No
2020/11/23,09:00,0.178,0.160,0.266,0.251,0.248,0.143,0.086,north-northwest,9.5,No
2020/11/23,09:10,0.180,0.161,0.267,0.250,0.248,0.144,0.086,north-northwest,8.4,No
2020/11/23,09:20,0.179,0.160,0.267,0.251,0.250,0.144,0.087,northwest,7.2,No
2020/11/23,09:30,0.179,0.160,0.267,0.252,0.247,0.144,0.085,northwest,5.6,No
2020/11/23,09:40,0.180,0.160,0.267,0.251,0.249,0.144,0.087,northwest,7.6,No
2020/11/23,09:50,0.177,0.160,0.268,0.254,0.247,0.144,0.086,northwest,4.9,No
2020/11/23,10:00,0.179,0.161,0.266,0.250,0.249,0.144,0.086,north-northwest,4.6,No
2020/11/23,10:10,0.178,0.160,0.268,0.253,0.249,0.143,0.086,north-northwest,7.0,No
2020/11/23,10:20,0.179,0.160,0.265,0.251,0.248,0.144,0.087,north-northwest,7.4,No
2020/11/23,10:30,0.178,0.160,0.267,0.254,0.249,0.144,0.085,north-northwest,7.4,No
2020/11/23,10:40,0.179,0.160,0.265,0.251,0.245,0.144,0.087,north-northwest,8.5,No
2020/11/23,10:50,0.180,0.159,0.267,0.253,0.248,0.144,0.085,north-northwest,9.5,No
2020/11/23,11:00,0.178,0.160,0.265,0.252,0.248,0.144,0.087,north-northwest,9.2,No
2020/11/23,11:10,0.180,0.160,0.267,0.253,0.247,0.144,0.087,north-northwest,8.2,No
2020/11/23,11:20,0.178,0.160,0.267,0.252,0.250,0.145,0.086,north,9.0,No
2020/11/23,11:30,0.180,0.160,0.268,0.255,0.248,0.145,0.087,north,8.3,No
2020/11/23,11:40,0.179,0.160,0.267,0.253,0.249,0.144,0.087,north,7.9,No
2020/11/23,11:50,0.180,0.161,0.267,0.254,0.248,0.145,0.086,north,8.1,No
2020/11/23,12:00,0.179,0.161,0.268,0.251,0.249,0.145,0.086,north-northwest,6.7,No
2020/11/23,12:10,0.180,0.160,0.267,0.255,0.249,0.145,0.086,northwest,8.5,No
2020/11/23,12:20,0.180,0.161,0.269,0.252,0.248,0.144,0.086,northwest,9.0,No
2020/11/23,12:30,0.178,0.160,0.267,0.254,0.250,0.144,0.087,northwest,8.1,No
2020/11/23,12:40,0.179,0.161,0.267,0.253,0.247,0.144,0.087,northwest,5.9,No
2020/11/23,12:50,0.179,0.160,0.266,0.254,0.250,0.145,0.086,northwest,5.4,No
2020/11/23,13:00,0.178,0.161,0.269,0.252,0.248,0.144,0.087,northwest,6.4,No
2020/11/23,13:10,0.179,0.160,0.267,0.251,0.252,0.145,0.087,northwest,7.0,No
2020/11/23,13:20,0.179,0.162,0.268,0.253,0.249,0.144,0.087,northwest,9.0,No
2020/11/23,13:30,0.178,0.160,0.267,0.251,0.250,0.145,0.086,northwest,7.1,No
2020/11/23,13:40,0.180,0.161,0.269,0.253,0.247,0.145,0.086,north-northwest,8.2,No
2020/11/23,13:50,0.180,0.161,0.268,0.253,0.249,0.145,0.087,northwest,8.7,No
2020/11/23,14:00,0.179,0.161,0.267,0.254,0.249,0.145,0.087,north-northwest,8.5,No
2020/11/23,14:10,0.180,0.161,0.269,0.254,0.250,0.145,0.087,north-northwest,7.6,No
2020/11/23,14:20,0.180,0.160,0.268,0.253,0.248,0.143,0.087,northwest,7.2,No
2020/11/23,14:30,0.180,0.162,0.268,0.254,0.250,0.144,0.087,northwest,7.0,No
2020/11/23,14:40,0.179,0.161,0.269,0.254,0.249,0.143,0.087,northwest,5.6,No
2020/11/23,14:50,0.179,0.161,0.269,0.255,0.250,0.144,0.087,north-northwest,5.1,No
2020/11/23,15:00,0.179,0.161,0.269,0.253,0.249,0.145,0.086,north-northwest,7.2,No
2020/11/23,15:10,0.179,0.161,0.268,0.254,0.247,0.144,0.088,northwest,7.3,No
2020/11/23,15:20,0.181,0.162,0.268,0.255,0.251,0.145,0.087,northwest,6.8,No
2020/11/23,15:30,0.180,0.161,0.268,0.253,0.249,0.144,0.087,northwest,5.9,No
2020/11/23,15:40,0.180,0.162,0.269,0.254,0.251,0.145,0.087,north-northwest,4.0,No
2020/11/23,15:50,0.181,0.162,0.267,0.254,0.248,0.144,0.087,northwest,3.9,No
2020/11/23,16:00,0.179,0.162,0.268,0.254,0.250,0.144,0.086,west-northwest,6.2,No
2020/11/23,16:10,0.180,0.161,0.268,0.254,0.250,0.144,0.087,northwest,4.5,No
2020/11/23,16:20,0.180,0.162,0.267,0.253,0.249,0.144,0.087,north,3.4,No
2020/11/23,16:30,0.179,0.160,0.270,0.253,0.250,0.145,0.087,northwest,4.8,No
2020/11/23,16:40,0.180,0.161,0.268,0.255,0.250,0.143,0.086,northwest,3.4,No
2020/11/23,16:50,0.179,0.161,0.266,0.253,0.248,0.145,0.087,west-northwest,4.4,No
2020/11/23,17:00,0.179,0.160,0.269,0.254,0.250,0.145,0.087,northwest,5.4,No
2020/11/23,17:10,0.178,0.161,0.268,0.254,0.248,0.146,0.087,north-northwest,5.6,No
2020/11/23,17:20,0.178,0.161,0.268,0.254,0.250,0.145,0.086,north-northwest,2.2,No
2020/11/23,17:30,0.179,0.160,0.267,0.255,0.249,0.144,0.087,north-northwest,5.7,No
2020/11/23,17:40,0.180,0.161,0.269,0.254,0.249,0.145,0.086,northwest,7.3,No
2020/11/23,17:50,0.179,0.162,0.268,0.253,0.249,0.145,0.087,north-northwest,7.3,No
2020/11/23,18:00,0.179,0.160,0.268,0.253,0.250,0.145,0.087,west-northwest,4.4,No
2020/11/23,18:10,0.179,0.161,0.268,0.254,0.249,0.145,0.088,northwest,5.1,No
2020/11/23,18:20,0.180,0.161,0.267,0.254,0.249,0.144,0.086,north-northeast,2.6,No
2020/11/23,18:30,0.180,0.161,0.267,0.254,0.249,0.144,0.087,northwest,2.2,No
2020/11/23,18:40,0.180,0.161,0.267,0.254,0.247,0.144,0.087,west,3.0,No
2020/11/23,18:50,0.179,0.163,0.269,0.254,0.249,0.144,0.086,west-northwest,4.4,No
2020/11/23,19:00,0.180,0.161,0.269,0.253,0.250,0.144,0.086,northwest,3.0,No
2020/11/23,19:10,0.180,0.161,0.267,0.252,0.249,0.144,0.087,west-northwest,5.4,No
2020/11/23,19:20,0.179,0.161,0.268,0.253,0.249,0.144,0.087,north-northwest,4.4,No
2020/11/23,19:30,0.180,0.160,0.267,0.253,0.249,0.144,0.086,northwest,4.9,No
2020/11/23,19:40,0.180,0.161,0.267,0.253,0.249,0.144,0.086,northwest,6.3,No
2020/11/23,19:50,0.178,0.161,0.269,0.254,0.249,0.144,0.087,northwest,7.6,No
2020/11/23,20:00,0.179,0.161,0.268,0.254,0.250,0.144,0.087,northwest,10.4,No
2020/11/23,20:10,0.180,0.161,0.267,0.254,0.248,0.144,0.086,northwest,7.7,No
2020/11/23,20:20,0.179,0.161,0.268,0.253,0.249,0.145,0.086,northwest,9.6,No
2020/11/23,20:30,0.180,0.161,0.268,0.254,0.249,0.144,0.086,northwest,8.1,No
2020/11/23,20:40,0.179,0.161,0.267,0.252,0.248,0.144,0.086,west-northwest,10.1,No
2020/11/23,20:50,0.179,0.162,0.268,0.252,0.249,0.145,0.086,northwest,9.2,No
2020/11/23,21:00,0.178,0.161,0.267,0.254,0.249,0.144,0.086,west-northwest,11.1,No
2020/11/23,21:10,0.179,0.161,0.267,0.253,0.246,0.145,0.087,west-northwest,9.2,No
2020/11/23,21:20,0.179,0.161,0.268,0.253,0.249,0.144,0.087,west-northwest,9.0,No
2020/11/23,21:30,0.180,0.161,0.268,0.254,0.249,0.144,0.086,northwest,9.8,No
2020/11/23,21:40,0.179,0.160,0.268,0.254,0.248,0.144,0.087,west-northwest,9.3,No
2020/11/23,21:50,0.179,0.162,0.266,0.253,0.247,0.143,0.087,northwest,10.9,No
2020/11/23,22:00,0.180,0.161,0.267,0.253,0.250,0.145,0.086,west-northwest,10.7,No
2020/11/23,22:10,0.180,0.160,0.268,0.255,0.248,0.145,0.086,west-northwest,9.2,No
2020/11/23,22:20,0.180,0.160,0.267,0.254,0.249,0.144,0.087,west-northwest,9.8,No
2020/11/23,22:30,0.179,0.161,0.268,0.253,0.248,0.145,0.087,west-northwest,9.3,No
2020/11/23,22:40,0.179,0.160,0.268,0.253,0.248,0.144,0.086,west-northwest,10.1,No
2020/11/23,22:50,0.179,0.160,0.269,0.254,0.247,0.144,0.087,west-northwest,8.2,No
2020/11/23,23:00,0.179,0.163,0.268,0.254,0.248,0.145,0.086,west-northwest,9.3,No
2020/11/23,23:10,0.180,0.161,0.268,0.253,0.248,0.144,0.086,west-northwest,7.8,No
2020/11/23,23:20,0.179,0.160,0.268,0.254,0.248,0.143,0.086,west-northwest,9.5,No
2020/11/23,23:30,0.179,0.161,0.269,0.254,0.249,0.144,0.086,northwest,6.7,No
2020/11/23,23:40,0.179,0.162,0.267,0.252,0.248,0.144,0.086,northwest,8.5,No
2020/11/23,23:50,0.180,0.160,0.269,0.253,0.248,0.144,0.087,west-northwest,7.9,No
